Location: Karcze
(52.0945°N, 22.4786°E)
Time: 07:34:41
(UTC+00:00)

Transit 2A Rocket - Pass Details

Date: 28 July 2021
Orbit: 586 x 917 km, 66.7° (Epoch: 24 September)

Event Time Altitude Azimuth Distance (km) Brightness Sun altitude
Rises 18:28:48 0° 310° (NW) 3,068 11.0 -1.1°
Reaches altitude 10° 18:31:52 10° 330° (NNW) 2,216 8.7 -1.5°
Maximum altitude 18:35:11 17° 12° (NNE) 1,841 7.3 -1.9°
Drops below altitude 10° 18:38:42 10° 52° (NE) 2,362 7.4 -2.4°
Sets 18:42:06 0° 72° (ENE) 3,362 8.0 -2.8°
